Flag for Hungary Weather past 2 weeks in Győr, Hungary

Now
54 °F

Cool.


Feels Like: 54 °F
Forecast: 55 / 64 °F
Wind: 3 mph from North

Location: Gyor

Current Time: May 22, 2015 at 1:04:32 PM

Latest Report: May 22, 2015 at 12:00 PM


Visibility: N/A

Pressure: 30.12 "Hg

Humidity: 97%

Dew point: 53 °F

Location of GyőrLocation

Historic Weather in Győr — Graph

°F

Győr temperature yesterday

Maximum temperature yesterday: 56 °F (at 2:00 PM)
Minimum temperature yesterday: 51 °F (at 6:00 AM)
Average temperature yesterday: 53 °F

Past Weeks' High & Low Weather Summary

 TemperatureHumidityPressure
High82 °F (May 19, 3:00 PM)100% (May 21, 4:00 PM)30.36 "Hg (May 21, 4:00 PM)
Low43 °F (May 12, 3:00 AM)27% (May 12, 5:00 PM)29.72 "Hg (May 20, 5:00 PM)
Average62 °F65%30.04 "Hg
* Reported May 7 11:00 AM — May 22 11:00 AM, Győr, Weather by CustomWeather, © 2015

Note: Actual official high and low records may vary slightly from our data, if they occured in-between our weather recording intervals... More about our weather records

Advertising

Győr weather history for previous 24 hours

 ConditionsComfort  
Time TempWeatherWind HumidityBarometerVisibility
11:00 AM
Fri, May 22
54 °FCool.3 mph94%30.12 "HgN/A
10:00 AM53 °FCool.2 mph94%30.12 "HgN/A
9:00 AM53 °FCool.3 mph89%30.11 "HgN/A
8:00 AM54 °FCool.3 mph80%30.11 "HgN/A
7:00 AM54 °FCool.3 mph76%30.09 "HgN/A
6:00 AM54 °FCool.3 mph76%30.09 "HgN/A
5:00 AM54 °FCool.3 mph79%30.10 "HgN/A
4:00 AM54 °FCool.3 mph79%30.09 "HgN/A
3:00 AM54 °FCool.2 mph78%30.10 "HgN/A
2:00 AM55 °FCool.3 mph77%30.10 "HgN/A
1:00 AM55 °FCool.3 mph79%30.11 "HgN/A
12:00 AM54 °FCool.3 mph82%30.11 "HgN/A
11:00 PM
Thu, May 21
54 °FCool.2 mph88%30.11 "HgN/A
10:00 PM53 °FCool.2 mph90%30.10 "HgN/A
9:00 PM53 °FCool.2 mph97%30.09 "HgN/A
8:00 PM54 °FCool.2 mph97%30.09 "HgN/A
7:00 PM54 °FCool.2 mph99%30.08 "HgN/A
6:00 PM54 °FCool.2 mph99%30.07 "HgN/A
5:00 PM54 °FCool.1 mph99%30.09 "HgN/A
4:00 PM54 °FCool.2 mph100%30.08 "HgN/A
3:00 PM55 °FCool.2 mph96%30.06 "HgN/A
2:00 PM56 °FCool.2 mph81%30.08 "HgN/A
1:00 PM55 °FCool.2 mph85%30.08 "HgN/A
Weather by CustomWeather, © 2015

See weather overviewHow to use our weather pages